Showing default

YUNYAO-1 47, 63348

Orbit data source: Space-Track

YUNYAO-1 47, 63348 is a payload satellite owned by Yunyao yuhang (CN) in SSO that was launched on Fri, 21 Mar 2025 UTC via a GUSHENXING 1 launch vehicle from the Jiuquan Satellite Launch Center, China (JSC). Payload-class satellites include a variety of spacecraft equipped with specific instruments for various scientific and technological missions. These include communications satellites like Starlink; space stations such as the ISS; scientific satellites like the Hubble; Earth observation satellites from companies like Planet Labs, Umbra, and HawkEye 360; GPS; miniature CubeSats for education and research; and military/defense satellites.

Loading next visibility...
Identifier
63348, 2025-059E
Orbit
SSO
Last TLE update
3 hours ago
Origin
Manufacturer
Changguang WJ
Mission
Operational spacecraft
Bus & Motor
YY-1, Unknown motor
Mass
~50 kg wet, ~50 kg dry
Launch date (UTC)
2025-03-21 (4 months ago)
Launch vehicle
GUSHENXING 1
Launch site
Jiuquan Satellite Launch Center, China (JSC)
Object type
Payload
Rocket body
Debris
Shape & HBR
Unknown
Radar Cross Section
Medium (>0.1 m² and <1 m²)

Expand to show TLE details & history

TLE from 3 hours ago
0 YUNYAO-1 47
1 63348U 25059E   25199.84441508  .00003484  00000-0  22941-3 0  9995
2 63348  97.6000  18.9042 0016244 215.8386 144.1753 15.08087868 18007
Epoch: 2025-07-18T20:15Z
TLE epoch observation values (Epoch: 2025-07-18T20:15:57.462Z)
Latitude
-0.00009°
Longitude
138.02474°
Altitude
554.235 km
Speed
7.58 km/s
True Right ascension
01h 15m 37s
True Declination
0° 00' 00"
Sunlit
Object was in daylight at epoch
Visualization orbit readout
Latitude
3.32461°
Longitude
137.7149°
Altitude
554.276 km
Speed
7.58 km/s
Apparent Right ascension
00h 50m 01s
Apparent Declination
-17° 23' 09"
Sunlit
Object is in daylight
Visualization observer readout
Local Sidereal Time
12:15:32
Azimuth
339.189° N
Elevation
-66.264°
Doppler factor
1
Orbital elements
Apogee altitude
550.27 km
Perigee altitude
527.797 km
Semi-major axis
6,917.17 km
Eccentricity
0.00162
Inclination
97.6°
RAAN
18.9042°
Arg. of periapsis
215.8386°
True anomaly
144.28407°
Mean anomaly
144.1753°
Eccentric anomaly
144.2297°
Mean motion
3.77268 °/min
Orbital period
95.42 mins
BSTAR
0.00022941
Loading maneuver chart data...
Loading SW <> Apogee altitude chart data...
Loading historical data...
Loading historical data...
Loading historical data...
Loading historical data...
Loading historical data...
Loading historical data...
Loading historical data...
Other satellites on launch #59 in the year 2025 (2025-03-21 UTC)
|